星链-30453 (STARLINK-30453 )

导读 | 豆包AI

STARLINK-30453是由美国发射的Starlink卫星,属于SpaceX星链互联网星座的一员。该卫星于2023年9月20日08:00发射入轨,主要服务是为全球提供低延迟、高速率的宽带互联网覆盖,推进星链星座组网建设,进一步完善全球卫星互联网布局。

基本信息
目录编号:
57910
目录名称:
STARLINK-30453
国际标识:
2023-146V
轨道中心:
EARTH
卫星名称:
星链-30453
卫星全名:
星链-30453 (STARLINK-30453 )
卫星状态:
在轨 (已飞行953 天)
发射日期:
2023-09-20 UTC
国别 :
美国 (US)
星等 :
--
轨道信息
数据来源 国际轨道数据
星历时间: 2026-04-30T10:11:55+0800
15小时前
查看轨道信息
半长轴: 6861.184km
偏心率: 0.0001417
轨道倾角: 43.005°
近地点辐角 263.998°
升交点赤经 20.836°
平近点角 96.071°
近地点: 482.074km
远地点: 484.02km
周期: 94.267分钟
每日圈数: 15.27581
详细信息
固有亮度:
5
最大亮度:
0.3
卫星平台:
Starlink v2.0 mini
覆盖范围:
全球
运营商:
太空探索技术公司
运营商所在国:
美国
制造商(研发单位):
太空探索技术公司
制造商所在国:
美国
使用方式:
暂无
卫星简介
星链(Starlink)计划是由太空探索技术公司(SpaceX)提出的一个巨型低轨卫星互联网星座项目,计划在2019年至2024年间在太空搭建由约1.2万颗卫星组成的“星链”网络,其中1584颗将部署在地球上空550千米处的近地轨道,并从2020年开始工作。该卫星仍在工作。
2D轨道图
3D轨道图
轨道高度分析图
轨道倾角分析图
轨道综合分析图
查看轨道综合分析图